Weather Roundup
Issued by NWS Springfield, MO

Home | Current Version | Previous Version | Text Only | Print | Product List | Glossary On
Versions: 1 2 3 4 5 6 7 8 9 10 11 12 13 14 15 16 17 18 19 20 21 22 23 24 25 26 27 28 29 30 31 32 33 34 35 36 37 38 39 40 41 42 43 44 45 46 47 48 49 50
000
NZUS99 KSGF 211359
HRRSGF

HOURLY WEATHER
NATIONAL WEATHER SERVICE SPRINGFIELD MO
900 AM CDT THU AUG 21 2014

......SGF CWA......

CITY           SKY/WX    TMP DP  RH WIND       PRES   REMARKS
SPRINGFIELD    MOSUNNY   80  70  71 S14       30.03R
JOPLIN         SUNNY     82  70  66 S17G24    30.00R
WEST PLAINS    SUNNY     80  71  74 SW8       30.08R
ROLLA          SUNNY     78  70  76 SW15      30.01R
OSAGE BEACH    SUNNY     81  70  69 S8        30.00R
BRANSON        SUNNY     82  72  69 SW14      30.07R

......SURROUNDING SGF CWA......

CITY           SKY/WX    TMP DP  RH WIND       PRES   REMARKS
CHANUTE        SUNNY     82  70  66 S21G26    29.96R
PARSONS        SUNNY     82  71  69 S13G18    29.98R
COFFEYVILLE    SUNNY     81  72  74 S17G23    29.96S
EMPORIA        SUNNY     80  70  71 S20       29.92R
SILOAM SPRINGS SUNNY     79  68  69 S15G23    30.06S
HARRISON AR    SUNNY     80  72  76 VRB6      30.08R
NEAR YELLVILLE SUNNY     81  70  69 S7        30.05S

......KANSAS AND MISSOURI......

CITY           SKY/WX    TMP DP  RH WIND       PRES   REMARKS
KANSAS CTY INT PTSUNNY   82  72  71 SW16      29.91S
DOWNTOWN KC    SUNNY     83  71  67 SW13G22   29.91R
COLUMBIA       SUNNY     77  71  82 S10       29.98R
SEDALIA        SUNNY     81  71  71 SW14      29.97R
ST JOSEPH      PTSUNNY   80  72  76 S14       29.87S
ST LOUIS       PTSUNNY   82  71  69 SW13G20   30.01R
SPIRIT OF STL  SUNNY     80  71  74 SW10      29.99R
KIRKSVILLE     MOSUNNY   78  70  76 SW10G20   29.93F
WICHITA        MOSUNNY   82  68  62 S16       29.92R
TOPEKA         MOSUNNY   82  71  69 S15G25    29.89R
OLATHE         SUNNY     79  71  76 S13G25    29.93R

......TENNESSEE......

CITY           SKY/WX    TMP DP  RH WIND       PRES   REMARKS
MEMPHIS        MOSUNNY   83  73  72 SW9       30.11S
NASHVILLE      MOSUNNY   79  73  82 VRB3      30.13R

......ARKANSAS.......

CITY           SKY/WX    TMP DP  RH WIND       PRES   REMARKS
FAYETTEVILLE   SUNNY     79  71  76 SW13G21   30.06S
FT SMITH       SUNNY     82  72  71 S8        30.04S
LITTLE ROCK    MOSUNNY   80  71  74 SW14      30.09S

......OKLAHOMA.......

CITY           SKY/WX    TMP DP  RH WIND       PRES   REMARKS
TULSA          MOSUNNY   82  72  71 S15       29.97R
PONCA CITY     SUNNY     81  70  69 S7        29.94S
MCALESTER      MOSUNNY   80  73  79 S10G17    30.03S
OKLAHOMA CITY  SUNNY     81  70  69 S17       29.98S

......IOWA............

CITY           SKY/WX    TMP DP  RH WIND       PRES   REMARKS
DES MOINES     CLOUDY    79  70  74 SW10      29.83S
QUAD CITIES    CLOUDY    76  69  79 CALM      29.91S

......ILLINOIS........

CITY           SKY/WX    TMP DP  RH WIND       PRES   REMARKS
QUINCY         MOSUNNY   78  69  73 SW13G21   29.95S
CHICAGO        LGT RAIN  72  68  87 CALM      29.96F FOG



USA.gov is the U.S. government's official web portal to all federal, state and local government web resources and services.